Preview of NWS' New Version of Forecast
This preview is not operational and should not be used for support decisions.

Regional Weather Roundup (RWR)

Issued by National Weather Service (NWS)

                            
000
ASUS42 KTBW 162218
RWRFL 
FLORIDA REGIONAL WEATHER ROUNDUP
NATIONAL WEATHER SERVICE TAMPA BAY RUSKIN FL
500 PM EST SAT FEB 16 2019

NOTE: "FAIR" INDICATES FEW OR NO CLOUDS BELOW 12,000 FEET WITH NO
SIGNIFICANT WEATHER AND/OR OBSTRUCTIONS TO VISIBILITY.

FLZ001>010-012>015-112-114-115-162300-
PANHANDLE FLORIDA
  
CITY           SKY/WX    TMP DP  RH WIND       PRES   REMARKS
PENSACOLA      FAIR      71  63  75 S13       29.77S                  
PENSACOLA NAS  PTSUNNY   67  65  93 SW14      29.77S                  
MILTON NAS     FAIR      74  65  73 S10       29.77                   
CRESTVIEW      PTSUNNY   76  62  62 VRB5      29.77S                  
DUKE FIELD     FAIR      75  62  64 SW9       29.76S                  
VALPARAISO     FAIR      69  63  82 S8        29.77R                  
MARY ESTHER    SUNNY     68  63  85 SW8       29.77S                  
PANAMA CITY    FAIR      71  63  75 SW14      29.78S                  
TYNDALL AFB    FAIR      69  64  86 SW8       29.80S                  
APALACHICOLA   PTSUNNY   70  64  81 W13       29.81F                  

STATION/POSITION SKY/WX   TEMP    WIND        PRES    WAVE   SWELL
                          AIR SEA DIR/SP/G            HT/PER HT/PER
                          (F)     (DEG/KT/KT) (MB)    (FT/S) (FT/S)
30.1N   87.6W              64     200/  8/ 10   N/A     2/ 6   2/ 6
29.2N   88.2W                     230/  6/  8 1009.7R   2/ 6   2/ 6
PANAMA CITY BEAC           65 62   CALM  /  3 1009.2S
TOWER C                    68     230/ 12/ 12 1009.9F

$$
FLZ011-016>038-118-127-128-134-139-239-162300-
NORTH FLORIDA
  
CITY           SKY/WX    TMP DP  RH WIND       PRES   REMARKS
MARIANNA       FAIR      76  62  62 W10       29.76R                  
TALLAHASSEE    CLOUDY    74  65  73 W8        29.78S                  
PERRY          FAIR      73  65  74 SW15      29.82S                  
LIVE OAK       MOSUNNY   73  63  68 VRB7G15   29.79F                  
CROSS CITY     CLOUDY    72  63  74 SW12      29.84S                  
LAKE CITY      FAIR      73  61  64 SW13      29.81S                  
GAINESVILLE    FAIR      78  60  53 SW12      29.85R                  
WILLISTON        N/A    N/A N/A N/A MISG        N/A                   
PALATKA        FAIR      75  59  57 SW12      29.83R                  
MAYPORT NAS    PTSUNNY   75  60  59 W7        29.79R                  
JACKSONVILLE   PTSUNNY   75  59  57 W8        29.78R                  
JAX NAS        PTSUNNY   78  60  53 W8        29.80R                  
JAX CECIL      PTSUNNY   77  61  57 SW12      29.79S                  
FERNANDINA BEA FAIR      75  61  62 SW8       29.79R                  
ST AUGUSTINE   FAIR      76  61  59 SW8       29.81R                  
PALM COAST     SUNNY     75  57  53 W10G21    29.83R                  

STATION/POSITION SKY/WX   TEMP    WIND        PRES    WAVE   SWELL
                          AIR SEA DIR/SP/G            HT/PER HT/PER
                          (F)     (DEG/KT/KT) (MB)    (FT/S) (FT/S)
SHELL POINT      NOT AVBL
KEATON BEACH               65     190/ 12/ 13 1010.2S
CEDAR KEY                  65     220/ 11/ 12 1011.2R
FERNANDINA                 72 59  230/  5/  9 1009.2R
30.7N   81.3W                 60                N/A     2/ 8
MAYPORT                    75 60  250/  8/ 11 1008.7R
31.4N   80.9W              60 58  190/  6/  8 1008.5R   3/ 8   2/ 8
ST AUGUSTINE               76 58  250/  9/ 12 1009.6R

$$
FLZ040-043>046-052-053-057-058-063-144-162300-
INTERIOR CENTRAL FLORIDA
  
CITY           SKY/WX    TMP DP  RH WIND       PRES   REMARKS
OCALA          PTSUNNY   74  62  66 SW10      29.86R                  
LEESBURG       FAIR      75  60  59 W13       29.85S                  
SANFORD        PTSUNNY   78  60  53 W12       29.83R                  
ORLANDO EXEC   PTSUNNY   78  61  55 SW10      29.84R                  
ORLANDO INTL   PTSUNNY   77  60  55 W12       29.85R                  
KISSIMMEE      CLOUDY    79  60  52 W14       29.86R                  
WINTER HAVEN   FAIR      81  61  50 W9        29.87R                  
LAKELAND       MOSUNNY   77  63  61 W12G18    29.87R                  
BARTOW         PTSUNNY   79  61  53 W12       29.85R                  
SEBRING        FAIR      80  60  50 SW17      29.87R                  
OKEECHOBEE     FAIR      79  59  50 SW13      29.86R                  

$$
FLZ041-047-054-059-064-141-147-162300-
EAST CENTRAL FLORIDA
  
CITY           SKY/WX    TMP DP  RH WIND       PRES   REMARKS
ORMOND BEACH   MOSUNNY   75  59  57 SW12G21   29.83R                  
DAYTONA BEACH  FAIR      77  62  59 SW13      29.83R                  
DELAND         FAIR      77  61  57 W8        29.83S                  
NEW SMYRNA BEA MOSUNNY   79  59  50 W14       29.83S                  
JFK SPACE CTR  PTSUNNY   78  63  59 W8        29.83R                  
TITUSVILLE     PTSUNNY   81  57  44 SW8       29.84S                  
CAPE CANAVERAL FAIR      79  63  56 W7        29.83R                  
PATRICK AFB    FAIR      79  62  54 W13       29.84R                  
MELBOURNE      FAIR      81  60  48 W14       29.84R                  
VERO BEACH     FAIR      80  59  48 SW10      29.85R                  
FT PIERCE      FAIR      80  60  50 S10G17    29.85S                  
STUART         MOSUNNY   81  57  44 SW10G20   29.88S                  

STATION/POSITION SKY/WX   TEMP    WIND        PRES    WAVE   SWELL
                          AIR SEA DIR/SP/G            HT/PER HT/PER
                          (F)     (DEG/KT/KT) (MB)    (FT/S) (FT/S)
28.5N   80.2W              70     170/  8/ 10 1011.1R   2/ 8   2/ 8
28.9N   78.5W              73 75  260/ 17/ 21 1012.0R   4/ 5   2/ 9
TRIDENT PIER               78 65  240/  8/ 11 1011.5R
28.4N   80.5W                 65                N/A     1/ 8

$$
FLZ050-056-061-142-242-148-248-149-249-151-251-155-255-
160-260-162300-
WEST CENTRAL FLORIDA
  
CITY           SKY/WX    TMP DP  RH WIND       PRES   REMARKS
CRYSTAL RIVER  FAIR      72  64  78 W9        29.87R                  
INVERNESS      FAIR      73  66  78 SW8       29.87S                  
BROOKSVILLE    PTSUNNY   75  64  68 W10       29.87S                  
CLEARWATER AIR PTSUNNY   72  64  78 SW6       29.87R                  
ST PETE CLEARW NOT AVBL                                               
TAMPA INTL     CLOUDY    74  65  73 S10       29.87S                  
TAMPA EXEC     FAIR      73  64  73 SW13      29.88S                  
PLANT CITY     FAIR      77  63  61 SW13      29.89R                  
MACDILL AFB    FAIR      72  65  79 SW10      29.87R                  
PETER O KNIGHT CLOUDY    73  68  83 SW9       29.88S                  
ST PETERSBURG  FAIR      72  63  73 SW12      29.85S                  
SARASOTA       FAIR      74  61  63 S13       29.86S                  
VENICE         FAIR      73  63  68 S10G17    29.89S                  

STATION/POSITION SKY/WX   TEMP    WIND        PRES    WAVE   SWELL
                          AIR SEA DIR/SP/G            HT/PER HT/PER
                          (F)     (DEG/KT/KT) (MB)    (FT/S) (FT/S)
27.3N   84.2W                 72                N/A     3/ 5
CLEARWATER BEACH           68 67  190/ 15/ 17 1011.5R
MIDDLE TAMPA BAY           70     220/ 12/ 13 1011.5R
VENICE                     69 67  170/ 10/ 10   N/A

$$
FLZ066-069-070-075>078-162-262-165-265-162300-
SOUTHWEST FLORIDA AND KEYS
  
CITY           SKY/WX    TMP DP  RH WIND       PRES   REMARKS
PUNTA GORDA    FAIR      77  61  57 SW10      29.89S                  
FT MYERS       FAIR      76  61  59 SW9       29.87S                  
SOUTHWEST INTL FAIR      75  62  64 SW12      29.88S                  
NAPLES         FAIR      76  65  68 S9        29.89R                  
MARCO ISLAND   FAIR      77  68  73 S8        29.91R                  
IMMOKALEE      FAIR      81  64  57 SW8G15    29.86S                  
MARATHON       FAIR      82  68  62 S6        29.89F                  
KEY WEST NAS   FAIR      80  66  62 S9        29.90S                  
KEY WEST INTL  FAIR      79  67  66 S6        29.90S                  

STATION/POSITION SKY/WX   TEMP    WIND        PRES    WAVE   SWELL
                          AIR SEA DIR/SP/G            HT/PER HT/PER
                          (F)     (DEG/KT/KT) (MB)    (FT/S) (FT/S)
NAPLES                     75 71  160/  4/  5 1012.2R
26.0N   85.6W              78 80  190/ 14/ 16 1010.3F   3/ 5
DRY TORTUGAS               79     190/  6/  6 1012.3R
SAND KEY                   76                 1012.5R
SOMBRERO KEY               77                 1012.0R
LONG KEY                   76 75  180/  7/  8 1012.0F
MOLASSES REEF              77 77  220/ 12/ 14 1013.0F

$$
FLZ067-068-071>074-168-172>174-162300-
SOUTHEAST FLORIDA 
  
CITY           SKY/WX    TMP DP  RH WIND       PRES   REMARKS
W PALM BEACH   PTSUNNY   81  60  48 SW9       29.87S                  
BOCA RATON     MOSUNNY   79  66  65 SE10G17   29.87F                  
FT LAUDER-EXEC FAIR      79  67  66 S9        29.87S                  
FT LAUDERDALE  FAIR      78  68  71 S12       29.88R                  
POMPANO BEACH  FAIR      78  66  66 S13       29.88R                  
PEMBROKE PINES FAIR      80  65  59 S10       29.89R                  
OPA LOCKA      PTSUNNY   80  65  59 S9        29.89R                  
MIAMI          PTSUNNY   80  65  59 S12G25    29.89R                  
WEST KENDALL   FAIR      80  65  59 SW14      29.88R                  
HOMESTEAD      FAIR      78  67  66 S10       29.88S                  

STATION/POSITION SKY/WX   TEMP    WIND        PRES    WAVE   SWELL
                          AIR SEA DIR/SP/G            HT/PER HT/PER
                          (F)     (DEG/KT/KT) (MB)    (FT/S) (FT/S)
VIRGINIA KEY               76 76  160/ 14/ 16 1011.4R
LAKE WORTH                 76 76  210/ 17/ 19 1012.6F
FOWEY ROCKS                76 76  180/ 19/ 20 1012.4F
SETTLEMENT POINT           75     200/ 14/ 16 1012.3F

$$